Preview of NWS' New Version of Forecast
This preview is not operational and should not be used for support decisions.

Regional Weather Roundup (RWR)

Issued by National Weather Service (NWS)

                            
000
ASUS43 KDTX 240701
RWRMI 
MICHIGAN HOURLY REGIONAL WEATHER ROUNDUP
NATIONAL WEATHER SERVICE DETROIT/PONTIAC MI
300 AM EDT WED APR 24 2019

NOTE: "FAIR" INDICATES FEW OR NO CLOUDS BELOW 12,000 FEET WITH NO
SIGNIFICANT WEATHER AND/OR OBSTRUCTION TO VISIBILITY.

MIZ047>049-052>055-059>063-066>070-074>076-081>083-240800-
SOUTHEAST LOWER MICHIGAN
  
CITY           SKY/WX    TMP DP  RH WIND       PRES   REMARKS
ADRIAN         FAIR      44  35  70 NW7       30.01F                  
ALMA           FAIR      39  34  83 W5        30.04F                  
ANN ARBOR      FAIR      43  35  73 N12G21    29.99F                  
BAD AXE        CLOUDY    40  34  78 NW8       29.99S                  
CARO           FAIR      40  35  83 NW5       30.00S                  
DETROIT CITY   FAIR      43  33  68 NW5       29.99F                  
DETROIT        FAIR      43  33  68 NW8       30.00S                  
FLINT          FAIR      38  34  85 W7        30.01F WCI  33          
GROSSE ILE     FAIR      44  35  70 N9        29.98F                  
HILLSDALE      FAIR      39  35  85 W6        30.01S WCI  35          
HOWELL         FAIR      40  34  77 NW8       30.00F WCI  35          

CITY           SKY/WX    TMP DP  RH WIND       PRES   REMARKS
JACKSON        FAIR      43  35  73 NW6       30.01F                  
LAMBERTVILLE   FAIR      44  38  82 CALM      29.99F                  
LANSING        FAIR      40  33  76 NW6       30.04F                  
LAPEER         FAIR      41  35  80 NW6       30.00S                  
MASON          FAIR      41  34  77 N6        30.01F                  
MONROE         FAIR      43  43  98 N3        29.99S                  
MT. CLEMENS    CLOUDY    43  38  81 NW7       29.97F                  
PONTIAC        FAIR      41  35  79 NW10      29.98S                  
PORT HOPE        N/A     41  34  76 NW15G23   29.97S                  
PORT HURON     CLOUDY    46  34  61 NW8G16    29.98S                  
TRI CITIES     FAIR      38  34  85 NW6       30.02F WCI  33          
MIDLAND        FAIR      37  33  84 NW5       30.02F WCI  33          
TROY           FAIR      42  32  65 NW3       30.01F                  
SAGINAW HB     FAIR      41  36  81 NW6       30.01F                  
$$
MIZ043>046-050>051-056>058-064>065-071>073-077>080-240800-
SOUTHWEST LOWER MICHIGAN
  
CITY           SKY/WX    TMP DP  RH WIND       PRES   REMARKS
BATTLE CREEK   FAIR      38  35  89 N5        30.03F WCI  34          
BENTON HARBOR  FAIR      36  33  89 VRB3      30.04F                  
BIG RAPIDS     FAIR      35  32  87 CALM      30.03S                  
COLDWATER      FAIR      40  37  92 NW5       30.03R                  
FREMONT        FAIR      36  34  93 CALM      30.04F                  
HOLLAND        FAIR      37  33  85 N3        30.05F                  
GRAND RAPIDS   FAIR      40  31  70 NE8       30.03F WCI  34          
IONIA          FAIR      39  32  75 CALM      30.04F                  
KALAMAZOO      FAIR      37  34  89 W3        30.04S                  
LUDINGTON      FAIR      32  31  97 CALM      30.05S FOG              
MARSHALL       FAIR      42  32  67 N3        30.02F                  
MOUNT PLEASANT FAIR      39  33  77 NW3       30.02F                  
MUSKEGON       FAIR      39  33  79 N5        30.05F                  
SOUTH HAVEN    FAIR      38  35  90 CALM      30.05S                  
$$
MIZ016>042-240800-
NORTHERN LOWER MICHIGAN
  
CITY           SKY/WX    TMP DP  RH WIND       PRES   REMARKS
ALPENA         FAIR      37  32  82 NW7       29.99F WCI  32          
BEAVER ISLAND  FAIR      29  27  95 CALM      30.03F                  
BELLAIRE       CLOUDY    31  30  95 CALM      30.04F FOG              
CADILLAC       FAIR      36  32  87 CALM      30.00F                  
CHARLEVOIX     FAIR      31  30  95 SW3       30.06F                  
FRANKFORT      FAIR      35  29  81 CALM      30.03F                  
GAYLORD        FAIR      31  30  96 W5        30.00F WCI  26          
GRAYLING         N/A     31  30  97 W6        30.00F WCI  25          
HARBOR SPRINGS FAIR      29  29  96 CALM      30.02F                  
HOUGHTON LAKE  FAIR      33  29  85 NW6       30.01F WCI  28          
MANISTEE       FAIR      29  27  92 CALM      30.05S                  
OSCODA         FAIR      36  31  81 NW8       29.98F WCI  30          
PELLSTON       FAIR      30  28  92 NW5       30.02F WCI  25          
ROGERS CITY    FAIR      36  32  85 W7        30.00F WCI  30          
TRAVERSE CITY  FAIR      31  29  92 CALM      30.03F                  
$$
MIZ007>008-015-240800-
EASTERN UPPER MICHIGAN
  
CITY           SKY/WX    TMP DP  RH WIND       PRES   REMARKS
KINROSS        FAIR      28  27  96 W3        30.00F                  
MACKINAC ISLAN FAIR      34  29  82 NW7       30.00F WCI  27          
NEWBERRY       FAIR      32  26  80 W7        30.01S WCI  26          
S. S. MARIE    FAIR      34  30  85 NW7       29.99S WCI  28          
MUNISING         N/A     29  24  82 S8        30.01F WCI  21          
$$
MIZ004>006-011>014-085-240800-
CENTRAL UPPER MICHIGAN
  
CITY           SKY/WX    TMP DP  RH WIND       PRES   REMARKS
MANISTIQUE     FAIR      27  21  80 CALM      30.01F                  
ESCANABA       FAIR      29  27  92 W6        30.04S WCI  23          
MENOMINEE      FAIR      31  30  96 CALM      30.06F                  
SAWYER-GWINN   FAIR      32  26  79 CALM      29.99F                  
$$
MIZ001>003-009>011-084-240800-
WESTERN UPPER MICHIGAN
  
CITY           SKY/WX    TMP DP  RH WIND       PRES   REMARKS
IRON MOUNTAIN  FAIR      32  27  81 CALM      30.00F                  
HOUGHTON       FAIR      39  20  46 SE5       29.97F                  
COPPER HARBOR    N/A     33  27  78 SW3       29.98F                  
IRONWOOD       FAIR      47  26  44 S12       29.95F                  
$$

ABBREVIATIONS USED IN REMARKS
   TC - TEMPERATURE IN CELSIUS
  WCI - WIND CHILL INDEX
   HX - HEAT INDEX
  VSB - VISIBILITY